Regional Weather Roundup
Issued by NWS

Home | Current Version | Previous Version | Graphics & Text | Print | Product List | Glossary Off
Versions: 1 2 3 4 5 6 7 8 9 10 11 12 13 14 15 16 17 18 19 20 21 22 23 24 25 26 27 28 29 30 31 32 33 34 35 36 37 38 39 40 41 42 43 44 45 46 47 48 49 50

000
ASUS43 KMKX 280621
RWRWI

WISCONSIN REGIONAL WEATHER ROUNDUP
NATIONAL WEATHER SERVICE MILWAUKEE/SULLIVAN WI
100 AM CDT WED SEP 28 2016

NOTE: "FAIR" INDICATES FEW OR NO CLOUDS BELOW 12,000 FEET WITH NO
SIGNIFICANT WEATHER AND/OR OBSTRUCTIONS TO VISIBILITY.

WIZ001-002-006>008-014>016-023>028-280700-
NORTHWEST WISCONSIN

CITY           SKY/WX    TMP DP  RH WIND       PRES   REMARKS
SUPERIOR ARPT  MOCLDY    52  48  85 N7        29.90R
6HR MIN TEMP:  49; 6HR MAX TEMP:  52;

ASHLAND        CLOUDY    53  49  86 N9        29.86R
6HR MIN TEMP:  49; 6HR MAX TEMP:  53; 6HR PCP: TRACE;

HAYWARD        CLOUDY    50  46  86 N8        29.86R
6HR MIN TEMP:  47; 6HR MAX TEMP:  49; 6HR PCP: TRACE;

SIREN          CLEAR     45  44  96 W5        29.90R
6HR MIN TEMP:  45; 6HR MAX TEMP:  47;

CUMBERLAND     CLOUDY    46  45  93 NW13      29.87S
RICE LAKE      CLOUDY    49  46  87 N7        29.88R
6HR MIN TEMP:  47; 6HR MAX TEMP:  49;

CHETEK         NOT AVBL
LADYSMITH      CLOUDY    49  47  93 NW9       29.85R
6HR MIN TEMP:  48; 6HR MAX TEMP:  49;

EAU CLAIRE     CLOUDY    49  47  93 NW5       29.85R
6HR MIN TEMP:  48; 6HR MAX TEMP:  49; 6HR PCP:  0.01;

MENOMONIE      MOCLDY    47  47 100 NW9       29.87R
6HR MIN TEMP:  47; 6HR MAX TEMP:  48; 6HR PCP:  0.01;

NEW RICHMOND   CLOUDY    47  46  96 NW7       29.90R
6HR MIN TEMP:  46; 6HR MAX TEMP:  48; 6HR PCP:  0.01;

OSCEOLA        CLOUDY    48  48 100 NW8       29.94R
6HR MIN TEMP:  47; 6HR MAX TEMP:  49;

$$

WIZ003>005-009-010-017-018-280700-
NORTH CENTRAL WISCONSIN

CITY           SKY/WX    TMP DP  RH WIND       PRES   REMARKS
MANITOWISH WTR NOT AVBL
ARBOR VITAE    DRIZZLE   52  51  97 NW6       29.78R
6HR MIN TEMP:  49; 6HR MAX TEMP:  52; 6HR PCP:  0.01;

WOODRUFF       DRIZZLE   52  51  97 NW6       29.78R
6HR MIN TEMP:  49; 6HR MAX TEMP:  52; 6HR PCP:  0.01;

RHINELANDER    CLOUDY    49  49 100 NW7       29.78R
6HR MIN TEMP:  48; 6HR MAX TEMP:  49; 6HR PCP:  0.02;

EAGLE RIVER    CLOUDY    49  49 100 CALM      29.76R
6HR MIN TEMP:  47; 6HR MAX TEMP:  49;

LAND O LAKES   CLOUDY    51  50  97 N7        29.79R
6HR MIN TEMP:  47; 6HR MAX TEMP:  51;

PHILLIPS       CLOUDY    47  47 100 NW6       29.80S
6HR MIN TEMP:  46; 6HR MAX TEMP:  47; 6HR PCP:  0.01;

TOMAHAWK       CLOUDY    47  46  95 NW5       29.79R
6HR MIN TEMP:  46; 6HR MAX TEMP:  47;

MEDFORD        DRIZZLE   47  47 100 NW10      29.79S
MERRILL        CLOUDY    48  47  97 N3        29.79R
6HR MIN TEMP:  47; 6HR MAX TEMP:  48;

$$

WIZ029-030-035-036-043>047-280700-
CENTRAL WISCONSIN

CITY           SKY/WX    TMP DP  RH WIND       PRES   REMARKS
WAUSAU         CLOUDY    49  46  90 NW5       29.77R
6HR MIN TEMP:  48; 6HR MAX TEMP:  49; 6HR PCP: TRACE;

MOSINEE        CLOUDY    46  46 100 NW7       29.79S
MARSHFIELD     CLOUDY    49  45  86 NW10      29.79R
6HR MIN TEMP:  48; 6HR MAX TEMP:  49; 6HR PCP: TRACE;

STEVENS POINT  CLOUDY    47  46  99 NW3       29.79S
6HR MIN TEMP:  46; 6HR MAX TEMP:  47; 6HR PCP:  0.02;

WAUPACA        CLOUDY    52  50  94 NW3       29.78S
6HR MIN TEMP:  51; 6HR MAX TEMP:  52;

WAUTOMA        CLOUDY    48  46  93 NW5       29.79S
WISC RAPIDS    CLOUDY    49  48  97 NW7       29.80R
6HR MIN TEMP:  48; 6HR MAX TEMP:  49; 6HR PCP:  0.02;

CAMP DOUGLAS   MOCLDY    48  46  93 NW7       29.81S
6HR MIN TEMP:  48; 6HR MAX TEMP:  49; 6HR PCP:  0.08;

$$

WIZ011>013-019>022-031-037>040-048>050-280700-
NORTHEAST WISCONSIN

CITY           SKY/WX    TMP DP  RH WIND       PRES   REMARKS
ANTIGO         CLOUDY    47  47  98 NW9       29.76S
6HR MIN TEMP:  46; 6HR MAX TEMP:  47; 6HR PCP:  0.01;

SHAWANO        CLOUDY    51  48  89 CALM      29.76R
6HR MIN TEMP:  51; 6HR MAX TEMP:  52;

OCONTO         NOT AVBL
STURGEON BAY   CLOUDY    52  49  89 NW5         N/A
6HR MIN TEMP:  51; 6HR MAX TEMP:  52; 6HR PCP:  0.09;

GREEN BAY      CLOUDY    50  50 100 W6        29.75S
6HR MIN TEMP:  50; 6HR MAX TEMP:  51; 6HR PCP: TRACE;

MANITOWOC      MOCLDY    50  48  93 MISG      29.76R
6HR MIN TEMP:  50; 6HR MAX TEMP:  52;

APPLETON       CLOUDY    48  48 100 NW8       29.75R
CLINTONVILLE   NOT AVBL
OSHKOSH        CLOUDY    50  47  89 W7        29.76S
6HR MIN TEMP:  49; 6HR MAX TEMP:  51; 6HR PCP:  0.07;

$$

WIZ032>034-041-042-053>061-280700-
SOUTHWEST WISCONSIN

CITY           SKY/WX    TMP DP  RH WIND       PRES   REMARKS
LA CROSSE      CLOUDY    52  47  83 N10       29.84R
6HR MIN TEMP:  51; 6HR MAX TEMP:  53; 6HR PCP:  0.06;

SPARTA         CLOUDY    48  47  98 NW5       29.84R
6HR MIN TEMP:  47; 6HR MAX TEMP:  49; 6HR PCP:  0.05;

VIROQUA        CLOUDY    47  46  97 NW7       29.83R
6HR MIN TEMP:  46; 6HR MAX TEMP:  51; 6HR PCP:  0.01;

BOSCOBEL       CLOUDY    51  45  79 NW6       29.83R
6HR MIN TEMP:  50; 6HR MAX TEMP:  61; 6HR PCP:  0.01;

PRAIRIE DU CHI CLOUDY    50  44  81 NW8       29.83S
6HR MIN TEMP:  50; 6HR MAX TEMP:  63;

PLATTEVILLE    CLOUDY    48  47  99 NW5       29.82R
6HR MIN TEMP:  48; 6HR MAX TEMP:  59;

$$

WIZ056-057-062-063-064-067-068-280700-
SOUTH CENTRAL WISCONSIN

CITY           SKY/WX    TMP DP  RH WIND       PRES   REMARKS
REEDSBURG      NOT AVBL
BARABOO/DELLS  CLOUDY    47  46  94 NW5       29.80R FOG
6HR MIN TEMP:  47; 6HR MAX TEMP:  49; 6HR PCP:  0.04;

LONE ROCK      CLOUDY    50  46  86 NW7       29.82R
6HR MIN TEMP:  49; 6HR MAX TEMP:  54; 6HR PCP:  0.01;

MINERAL POINT  MOCLDY    48  46  93 NW5       29.81R
MADISON        LGT RAIN  48  47  96 NW3       29.79R
6HR MIN TEMP:  48; 6HR MAX TEMP:  52; 6HR PCP:  0.05;

MIDDLETON      MOCLDY    49  49 100 W6        29.80S
6HR MIN TEMP:  49; 6HR MAX TEMP:  54; 6HR PCP:  0.02;

WATERTOWN      DRIZZLE   48  48 100 W3        29.78S
6HR MIN TEMP:  48; 6HR MAX TEMP:  51; 6HR PCP:  0.06;

MONROE         DRIZZLE   48  46  93 NW3       29.79S
JANESVILLE     DRIZZLE   50  48  93 W6        29.78R
$$

WIZ051-052-058>065-066-070>072-280700-
SOUTHEAST WISCONSIN

CITY           SKY/WX    TMP DP  RH WIND       PRES   REMARKS
MILWAUKEE      LGT RAIN  51  48  89 SW7       29.79R
6HR MIN TEMP:  51; 6HR MAX TEMP:  55; 6HR PCP:  0.03;

WAUKESHA       LGT RAIN  46  45  93 SW6       29.79S
MILWAUKEE/TIMM RAIN      48  45  87 SW5       29.79R
RACINE         LGT RAIN  51  46  83 W3        29.80S
6HR MIN TEMP:  50; 6HR MAX TEMP:  55; 6HR PCP:  0.01;

BURLINGTON     CLOUDY    48  44  85 CALM      29.78S
6HR MIN TEMP:  48; 6HR MAX TEMP:  53;

KENOSHA        CLOUDY    50  46  86 CALM      29.79F
6HR MIN TEMP:  50; 6HR MAX TEMP:  56;

FOND DU LAC    CLOUDY    50  48  93 W6        29.77S
6HR MIN TEMP:  50; 6HR MAX TEMP:  51; 6HR PCP:  0.09;

SHEBOYGAN      LGT RAIN  50  48  93 W3        29.76S
6HR MIN TEMP:  50; 6HR MAX TEMP:  52; 6HR PCP:  0.11;

WEST BEND      DRIZZLE   48  46  93 W6        29.77S
JUNEAU         CLOUDY    48  46  95 W3        29.79R
6HR MIN TEMP:  47; 6HR MAX TEMP:  49; 6HR PCP:  0.07;

$$

LSZ147-162-280700-
LAKE SUPERIOR

STATION/POSITION TIME  TEMP    WIND        PRES    WAVE
                       AIR SEA DIR/SP/G            HT/PER
                 (UTC) (F)     (DEG/KT/KT) (MB)    (FT/S)
W MID LAKE BUOY  0550   54 53   40/ 21/ 25 1009.7R   5/ 5
DEVILS ISLAND    0600   53     350/ 17/ 20 1011.5R
SAXON HARBOR     0606   56     360/ 20/ 25 1010.2
$$

LMZ867-665-643>646-280700-
LAKE MICHIGAN

STATION/POSITION TIME  TEMP    WIND        PRES    WAVE
                       AIR SEA DIR/SP/G            HT/PER
                 (UTC) (F)     (DEG/KT/KT) (MB)    (FT/S)
CHAMBERS ISLAND  0500   52     290/  3/  6 1006.8R
S GREEN BAY BUOY 0500   54 62  300/ 10/ 12 1006.7
N MID LAKE BUOY  0550   56 66   80/  6/  8 1006.5R   2/ 6
NORTHPORT PIER   0500   53     290/  2/  5 1006.8R
SISTER BAY       0538   54     340/ 10/ 11   N/A
KEWAUNEE LAKESHO 0500   51     290/  3/  6 1006.6R
SHEBOYGAN C1F1C2F2C3F3C4F4C5F5C6F6C7F7C8M1C9M2Ca!


USA.gov is the U.S. government's official web portal to all federal, state and local government web resources and services.